Dunkirk, NY

1:12 PM EST on December 16, 2017 (GMT -0500)
Chautauqua County-Dunkirk

Weather History for KDKK - February, 2013

Change the Weather History Date:

Wednesday, February 6, 2013

  Actual Average Record
Temperature  
Mean Temperature 19 °F -  
Max Temperature 28 °F 30 °F 56 °F (1938)
Min Temperature 10 °F 15 °F -6 °F (1935)
Degree Days  
Heating Degree Days 46    
Moisture  
Dew Point 15 °F    
Average Humidity 70    
Maximum Humidity 85    
Minimum Humidity 58    
Precipitation  
Precipitation 0.00 in - - ()
Sea Level Pressure  
Sea Level Pressure 30.20 in    
Wind  
Wind Speed 11 mph (West)    
Max Wind Speed 16 mph    
Max Gust Speed 23 mph    
Visibility 10 miles    
Events Snow    
Averages and records for this station are not official NWS values.
T = Trace of Precipitation, MM = Missing Value Source: NWS Daily Summary

Daily Weather History Graph

Daily Weather History Graph

Search for Another Location

Airport or City:

Trip Planner

Search our weather history database for the weather conditions in past years. The results will help you decide how hot, cold, wet, or windy it might be!

Date:

Astronomy

Feb. 06, 2013 Rise Set
Actual Time 7:25 AM EST 5:37 PM EST
Civil Twilight 6:55 AM EST 6:07 PM EST
Nautical Twilight 6:22 AM EST 6:40 PM EST
Astronomical Twilight 5:49 AM EST 7:13 PM EST
Moon 4:09 AM EST (2/6) 1:51 PM EST (2/6)
Length of Visible Light 11h 11m
Length of Day
10h 12m
Waning Crescent, 17% of the Moon is Illuminated
Feb 6
Waning Crescent
Feb 10
New
Feb 17
First Quarter
Feb 25
Full
Mar 4
Last Quarter

Hourly Weather History & Observations

Time (EST) Temp. Windchill Dew Point Humidity Pressure Visibility Wind Dir Wind Speed Gust Speed Precip Events Conditions
12:53 AM 26.1 °F 15.0 °F 19.0 °F 75% 29.93 in 10.0 mi SW 12.7 mph - N/A   Overcast
1:53 AM 26.1 °F 14.5 °F 19.9 °F 78% 29.94 in 10.0 mi SW 13.8 mph - N/A   Overcast
2:06 AM 26.6 °F 15.7 °F 21.2 °F 80% 29.92 in 10.0 mi SW 12.7 mph - N/A   Overcast
2:53 AM 27.0 °F 17.3 °F 23.0 °F 85% 29.96 in 6.0 mi SW 10.4 mph - 0.00 in   Overcast
3:23 AM 28.4 °F 18.0 °F 23.0 °F 80% 29.93 in 8.0 mi West 12.7 mph 19.6 mph 0.00 in   Overcast
3:53 AM 28.9 °F 19.8 °F 23.0 °F 78% 29.97 in 9.0 mi West 10.4 mph 19.6 mph 0.00 in   Overcast
4:53 AM 28.9 °F 18.2 °F 21.0 °F 72% 30.02 in 7.0 mi WNW 13.8 mph 23.0 mph 0.00 in Snow Light Snow
5:37 AM 26.6 °F 16.8 °F 19.4 °F 74% 30.01 in 10.0 mi NW 10.4 mph 23.0 mph 0.00 in   Overcast
5:53 AM 27.0 °F 14.7 °F 17.1 °F 66% 30.05 in 10.0 mi NW 16.1 mph 21.9 mph 0.00 in   Overcast
6:53 AM 26.1 °F 13.6 °F 16.0 °F 66% 30.09 in 10.0 mi NW 16.1 mph 23.0 mph N/A   Overcast
7:53 AM 25.0 °F 13.1 °F 16.0 °F 69% 30.15 in 10.0 mi NW 13.8 mph 21.9 mph N/A   Overcast
8:53 AM 25.0 °F 15.5 °F 14.0 °F 63% 30.19 in 10.0 mi NW 9.2 mph 19.6 mph N/A   Clear
9:53 AM 25.0 °F 12.6 °F 14.0 °F 63% 30.22 in 10.0 mi NW 15.0 mph 19.6 mph N/A   Partly Cloudy
10:53 AM 25.0 °F 14.8 °F 15.1 °F 66% 30.25 in 10.0 mi NW 10.4 mph - N/A   Partly Cloudy
11:43 AM 26.6 °F 18.2 °F 15.8 °F 64% 30.23 in 10.0 mi NW 8.1 mph - N/A   Mostly Cloudy
11:53 AM 25.0 °F 15.5 °F 15.1 °F 66% 30.26 in 10.0 mi WNW 9.2 mph - N/A   Mostly Cloudy
12:53 PM 25.0 °F 16.3 °F 15.1 °F 66% 30.27 in 10.0 mi WNW 8.1 mph - N/A   Overcast
1:37 PM 24.8 °F 16.9 °F 15.8 °F 69% 30.25 in 10.0 mi WNW 6.9 mph - N/A   Overcast
1:53 PM 25.0 °F 17.1 °F 15.1 °F 66% 30.28 in 10.0 mi WNW 6.9 mph - N/A   Overcast
2:53 PM 25.0 °F 16.3 °F 15.1 °F 66% 30.30 in 10.0 mi West 8.1 mph - N/A   Overcast
3:53 PM 26.1 °F 17.6 °F 12.9 °F 58% 30.31 in 10.0 mi WSW 8.1 mph - N/A   Mostly Cloudy
4:20 PM 24.8 °F 16.9 °F 14.0 °F 64% 30.27 in 10.0 mi WSW 6.9 mph - N/A   Mostly Cloudy
4:53 PM 25.0 °F 14.2 °F 12.9 °F 60% 30.32 in 10.0 mi SW 11.5 mph - N/A   Mostly Cloudy
5:14 PM 24.8 °F 16.1 °F 12.2 °F 59% 30.29 in 10.0 mi WSW 8.1 mph - N/A   Overcast
5:53 PM 25.0 °F 14.8 °F 14.0 °F 63% 30.33 in 10.0 mi SW 10.4 mph - N/A   Overcast
6:37 PM 21.2 °F 14.9 °F 12.2 °F 68% 30.30 in 10.0 mi South 4.6 mph - N/A   Scattered Clouds
6:53 PM 19.9 °F 13.4 °F 12.0 °F 71% 30.35 in 10.0 mi SSW 4.6 mph - N/A   Clear
7:53 PM 18.0 °F - 10.9 °F 74% 30.38 in 10.0 mi Calm Calm - N/A   Clear
8:53 PM 17.1 °F 8.7 °F 10.0 °F 74% 30.38 in 10.0 mi South 5.8 mph - N/A   Clear
9:53 PM 15.1 °F 7.7 °F 9.0 °F 77% 30.38 in 10.0 mi South 4.6 mph - N/A   Clear
10:53 PM 10.9 °F 1.4 °F 7.0 °F 84% 30.38 in 10.0 mi SSE 5.8 mph - N/A   Clear
11:53 PM 10.9 °F - 6.1 °F 81% 30.35 in 10.0 mi Calm Calm - N/A   Clear